Location: Krakow
(50.0830°N, 19.9170°E)
Time: 00:04:00
(UTC+02:00)

A-11 Canister half - Pass Details

Date: 30 May 2024
Orbit: 1515 x 1684 km, 47.2° (Epoch: 20 June)

Event Time Altitude Azimuth Distance (km) Brightness Sun altitude
Exits shadow 02:01:05 - 241° (WSW) 4,022 10.8 -15.8°
Reaches altitude 10° 02:01:47 10° 241° (WSW) 3,800 10.6 -15.7°
Maximum altitude 02:11:14 65° 162° (SSE) 1,678 9.0 -15.2°
Drops below altitude 10° 02:20:23 10° 83° (E) 3,688 11.4 -14.6°
Sets 02:23:26 0° 81° (E) 4,667 12.0 -14.4°
